Heraklion, Greece

12:53 PM EEST on June 26, 2017 (GMT +0300)
Nikos Kazantzakis

Weather History for LGIR - March, 2013

Change the Weather History Date:

Wednesday, March 27, 2013

  Actual Average Record
Temperature  
Mean Temperature 60 °F -  
Max Temperature 67 °F 67 °F 89 °F (2001)
Min Temperature 53 °F 54 °F 44 °F (2009)
Degree Days  
Heating Degree Days 5    
Growing Degree Days 10 (Base 50)    
Moisture  
Dew Point 50 °F    
Average Humidity 68    
Maximum Humidity 88    
Minimum Humidity 46    
Precipitation  
Precipitation 0.00 in 0.04 in - ()
Sea Level Pressure  
Sea Level Pressure 29.81 in    
Wind  
Wind Speed 7 mph ()    
Max Wind Speed 12 mph    
Max Gust Speed -    
Visibility 6.4 miles    
Events      
Averages and records for this station are not official NWS values.
T = Trace of Precipitation, MM = Missing Value Source: Averaged Metar Reports

Daily Weather History Graph

Daily Weather History Graph

Search for Another Location

Airport or City:

Trip Planner

Search our weather history database for the weather conditions in past years. The results will help you decide how hot, cold, wet, or windy it might be!

Date:

Astronomy

Mar. 27, 2013 Rise Set
Actual Time 6:13 AM EET 6:36 PM EET
Civil Twilight 5:47 AM EET 7:02 PM EET
Nautical Twilight 5:17 AM EET 7:32 PM EET
Astronomical Twilight 4:47 AM EET 8:02 PM EET
Moon 6:56 PM EET (3/27) 5:53 AM EET (3/27)
Length of Visible Light 13h 14m
Length of Day
12h 23m
Full, 100% of the Moon is Illuminated
Mar 27
Full
Apr 3
Last Quarter
Apr 10
New
Apr 18
First Quarter
Apr 25
Full

Hourly Weather History & Observations

Time (EET) Temp. Dew Point Humidity Pressure Visibility Wind Dir Wind Speed Gust Speed Precip Events Conditions
12:20 AM 57.2 °F 46.4 °F 67% 29.74 in 6.2 mi South 9.2 mph - N/A   Partly Cloudy
12:50 AM 53.6 °F 48.2 °F 82% 29.71 in 6.2 mi SSW 6.9 mph - N/A   Partly Cloudy
1:20 AM 53.6 °F 48.2 °F 82% 29.71 in 6.2 mi SSW 6.9 mph - N/A   Partly Cloudy
1:50 AM 53.6 °F 48.2 °F 82% 29.74 in 6.2 mi South 8.1 mph - N/A   Partly Cloudy
2:00 AM 54 °F 48 °F 73% 29.76 in 6 mi South 6.9 mph - -   Scattered Clouds
2:50 AM 53.6 °F 48.2 °F 82% 29.74 in 6.2 mi SSE 6.9 mph - N/A   Partly Cloudy
3:50 AM 53.6 °F 48.2 °F 82% 29.74 in 6.2 mi South 8.1 mph - N/A   Partly Cloudy
4:50 AM 55.4 °F 48.2 °F 77% 29.74 in 6.2 mi South 8.1 mph - N/A   Partly Cloudy
5:50 AM 55.4 °F 48.2 °F 77% 29.77 in 6.2 mi SSE 6.9 mph - N/A   Scattered Clouds
6:20 AM 55.4 °F 48.2 °F 77% 29.77 in 6.2 mi South 6.9 mph - N/A   Scattered Clouds
6:50 AM 53.6 °F 48.2 °F 82% 29.77 in 6.2 mi South 8.1 mph - N/A   Mostly Cloudy
7:20 AM 53.6 °F 48.2 °F 82% 29.77 in 6.2 mi South 6.9 mph - N/A   Mostly Cloudy
7:50 AM 59.0 °F 46.4 °F 63% 29.80 in 6.2 mi SSE 6.9 mph - N/A   Mostly Cloudy
8:00 AM 59 °F 46 °F 51% 29.80 in 9 mi SSE 6.9 mph - -   Partly Cloudy
8:20 AM 62.6 °F 48.2 °F 59% 29.80 in 6.2 mi South 9.2 mph - N/A   Mostly Cloudy
8:50 AM 64.4 °F 50.0 °F 59% 29.80 in 6.2 mi SSE 11.5 mph - N/A   Mostly Cloudy
9:20 AM 64.4 °F 50.0 °F 59% 29.80 in 6.2 mi SSE 9.2 mph - N/A   Mostly Cloudy
9:50 AM 64.4 °F 50.0 °F 59% 29.83 in 6.2 mi SE 4.6 mph - N/A   Mostly Cloudy
10:20 AM 64.4 °F 50.0 °F 59% 29.83 in 6.2 mi NNE 8.1 mph - N/A   Mostly Cloudy
10:50 AM 66.2 °F 53.6 °F 64% 29.83 in 6.2 mi NNW 10.4 mph - N/A   Scattered Clouds
11:20 AM 66.2 °F 53.6 °F 64% 29.83 in 6.2 mi North 6.9 mph - N/A   Scattered Clouds
11:50 AM 68.0 °F 50.0 °F 52% 29.83 in 6.2 mi North 5.8 mph - N/A   Scattered Clouds
12:20 PM 68.0 °F 48.2 °F 49% 29.83 in 6.2 mi North 5.8 mph - N/A   Scattered Clouds
12:50 PM 68.0 °F 50.0 °F 52% 29.83 in 6.2 mi North 6.9 mph - N/A   Mostly Cloudy
1:20 PM 68.0 °F 50.0 °F 52% 29.83 in 6.2 mi NNW 6.9 mph - N/A   Mostly Cloudy
1:50 PM 68.0 °F 51.8 °F 56% 29.83 in 6.2 mi North 5.8 mph - N/A   Mostly Cloudy
2:00 PM 68 °F 52 °F 46% 29.83 in 12 mi North 5.8 mph - -   Scattered Clouds
2:20 PM 68.0 °F 51.8 °F 56% 29.83 in 6.2 mi NE 4.6 mph - N/A   Mostly Cloudy
2:50 PM 66.2 °F 55.4 °F 68% 29.80 in 6.2 mi NE 6.9 mph - N/A   Mostly Cloudy
3:20 PM 66.2 °F 55.4 °F 68% 29.80 in 6.2 mi ENE 9.2 mph - N/A   Mostly Cloudy
3:50 PM 66.2 °F 50.0 °F 56% 29.80 in 6.2 mi ENE 9.2 mph - N/A   Scattered Clouds
4:20 PM 66.2 °F 50.0 °F 56% 29.80 in 6.2 mi East 9.2 mph - N/A   Scattered Clouds
4:50 PM 66.2 °F 53.6 °F 64% 29.80 in 6.2 mi ENE 6.9 mph - N/A   Scattered Clouds
5:20 PM 66.2 °F 53.6 °F 64% 29.80 in 6.2 mi North 4.6 mph - N/A   Scattered Clouds
5:50 PM 64.4 °F 55.4 °F 73% 29.83 in 6.2 mi Variable 3.5 mph - N/A   Scattered Clouds
6:20 PM 64.4 °F 55.4 °F 73% 29.83 in 6.2 mi East 4.6 mph - N/A   Scattered Clouds
6:50 PM 62.6 °F 57.2 °F 82% 29.86 in 6.2 mi Variable 3.5 mph - N/A   Scattered Clouds
7:20 PM 62.6 °F 57.2 °F 82% 29.86 in 6.2 mi Variable 3.5 mph - N/A   Scattered Clouds
7:50 PM 59.0 °F 55.4 °F 88% 29.86 in 6.2 mi Variable 3.5 mph - N/A   Scattered Clouds
8:00 PM 60 °F 55 °F 79% 29.88 in 6 mi 3.5 mph - -   Scattered Clouds
8:20 PM 59.0 °F 55.4 °F 88% 29.86 in 6.2 mi SSE 4.6 mph - N/A   Scattered Clouds
8:50 PM 59.0 °F 50.0 °F 72% 29.89 in 6.2 mi South 6.9 mph - N/A   Scattered Clouds
9:20 PM 59.0 °F 50.0 °F 72% 29.89 in 6.2 mi South 8.1 mph - N/A   Scattered Clouds
9:50 PM 59.0 °F 44.6 °F 59% 29.89 in - South 9.2 mph - N/A   Clear
10:20 PM 59.0 °F 44.6 °F 59% 29.89 in - South 8.1 mph - N/A   Clear
10:50 PM 57.2 °F 46.4 °F 67% 29.89 in - SW 4.6 mph - N/A   Clear
11:20 PM 57.2 °F 46.4 °F 67% 29.89 in - South 6.9 mph - N/A   Clear
11:50 PM 55.4 °F 44.6 °F 67% 29.89 in - SW 6.9 mph - N/A   Clear